RH
4 4 4 4 4 4 4 4 4 4 5 5 5 5 5 5 5 6 6 6 6 7 7 7 7 7 8 8 8 9 8 7 5 3 2 2 2 6 10 14 17 20 22 26 30 29 29 29 29 31 32 33 38 45 48 50 46 42 49 62 71 77 79 75 80 88 85 85 82 68 50 36 36 43 50 40 18 11 15 21 24 26 30 31 32 29 17 17
4 3 4 3 4 4 4 4 4 4 4 5 5 5 5 5 5 5 6 6 6 6 7 7 7 7 8 8 9 9 9 8 7 5 4 2 2 5 10 13 16 21 22 24 26 27 28 27 27 29 30 32 36 39 45 52 50 47 52 67 72 66 72 70 71 82 83 89 87 74 57 33 32 42 43 33 17 12 12 24 34 22 22 30 24 21 20 17
4 4 4 4 4 4 4 4 4 4 4 4 4 4 5 5 5 5 5 6 6 7 7 7 7 8 8 8 9 9 10 10 8 7 5 3 2 3 9 12 15 21 22 23 25 26 28 28 28 29 30 32 36 36 41 51 52 55 62 70 71 59 63 66 68 77 78 90 89 75 63 42 39 40 33 26 16 12 14 28 41 27 19 25 22 19 21 19
4 4 4 4 4 4 3 3 3 3 3 4 4 4 4 4 5 5 5 6 6 7 7 7 8 8 9 9 9 9 10 10 9 9 7 5 3 3 8 10 13 19 22 24 26 28 29 31 31 31 34 34 39 40 40 50 51 56 63 66 69 59 58 64 68 78 79 86 87 71 60 56 55 42 31 26 16 13 17 28 38 38 28 21 22 20 20 23
4 4 4 4 4 3 3 3 3 3 3 3 3 3 4 4 4 4 5 5 6 6 7 7 8 8 9 9 10 10 11 10 8 9 9 6 4 3 6 8 11 17 23 27 29 32 33 33 33 33 36 36 40 41 39 50 52 55 63 62 63 55 59 71 72 82 86 83 84 73 63 67 59 44 47 40 29 26 21 31 40 40 32 20 22 20 21 24
5 5 4 4 4 3 3 3 3 3 3 3 3 3 3 3 3 4 4 4 5 6 7 7 8 9 9 10 10 10 11 9 8 10 9 8 5 3 4 7 10 16 23 31 34 38 40 37 36 36 36 33 36 38 37 49 52 54 66 60 52 48 57 73 73 81 90 84 84 78 70 73 51 37 54 47 37 33 19 35 48 35 25 22 22 20 21 25
5 5 4 4 4 4 4 3 3 3 3 3 3 3 3 3 3 3 3 4 4 5 6 7 8 9 9 10 10 12 12 8 10 12 10 9 7 4 4 5 9 17 24 36 43 44 47 43 40 38 36 33 32 36 39 49 50 51 66 56 41 47 54 69 78 81 88 83 83 84 77 71 50 38 51 45 35 28 18 36 47 33 26 24 21 21 23 28
6 5 5 5 4 4 4 3 3 3 3 3 3 3 2 3 3 3 3 3 4 4 5 6 8 9 10 11 11 13 11 8 12 13 11 11 9 6 4 5 11 18 25 38 46 45 49 48 44 40 37 33 31 38 43 51 50 47 60 52 43 59 59 65 82 85 87 82 79 81 75 67 56 46 42 35 27 20 23 39 40 32 32 29 21 22 27 30
6 6 5 5 5 5 4 3 3 3 3 3 2 3 2 2 2 2 3 3 3 3 4 5 7 9 11 12 13 14 10 10 15 14 14 12 10 8 4 5 11 20 27 37 44 46 49 50 49 43 34 32 32 39 47 55 56 47 52 49 49 68 60 58 82 90 89 87 82 75 68 69 63 49 38 26 17 14 22 37 41 35 35 34 21 20 26 31
7 6 6 6 5 5 4 4 3 3 3 3 2 2 2 2 2 2 2 2 3 3 4 5 6 8 10 12 14 13 10 13 16 15 16 15 12 10 5 5 10 20 28 35 45 49 52 53 51 44 34 33 35 38 44 55 59 44 43 52 56 70 66 63 86 98 91 84 84 79 67 68 65 53 43 23 9 12 17 28 39 36 30 31 25 21 20 26
7 7 6 6 6 5 5 4 3 3 3 2 2 2 2 2 2 2 2 2 3 3 4 5 6 8 10 13 15 12 11 16 17 17 19 17 15 12 8 5 8 20 28 35 45 47 52 54 50 50 42 36 35 37 43 51 56 45 41 55 60 71 75 66 78 95 95 85 84 87 73 64 63 58 51 28 7 8 14 23 34 32 26 28 30 26 18 19
8 7 6 6 6 5 4 3 3 3 2 2 2 2 2 2 2 2 3 3 4 4 5 6 7 9 11 14 15 12 15 19 18 19 22 19 18 15 10 6 6 17 28 35 43 43 48 51 53 58 47 37 37 36 42 45 49 45 44 62 63 65 75 65 70 87 93 94 90 89 82 72 68 64 63 45 16 5 8 20 33 34 26 24 29 26 22 22
8 7 7 6 5 4 4 3 3 3 2 2 2 2 2 3 4 4 5 6 7 7 7 8 9 11 13 15 15 15 18 20 19 22 24 23 20 17 12 8 6 12 25 35 40 41 45 51 58 59 46 44 43 35 41 41 41 40 41 65 66 55 67 63 65 80 85 93 94 93 92 86 78 73 77 63 31 8 6 22 34 36 29 23 26 25 27 29
8 8 7 6 5 4 3 3 3 3 2 3 3 4 5 7 8 10 12 13 14 14 14 15 15 16 18 18 18 19 21 21 21 24 25 26 23 20 16 10 6 10 22 33 40 42 45 53 58 55 53 53 42 36 46 40 36 38 35 58 68 50 54 56 59 74 81 84 90 94 93 91 88 79 79 73 46 13 7 29 42 42 38 27 23 21 29 29
8 7 6 5 5 3 3 3 3 3 3 5 6 8 10 13 16 17 19 20 21 21 21 21 21 22 22 22 22 21 21 22 23 26 27 28 25 22 18 12 7 7 17 30 40 47 48 55 59 59 66 61 48 50 58 48 39 37 33 54 68 52 49 55 56 67 78 79 82 87 87 89 92 86 80 76 62 26 6 27 47 54 51 40 30 21 26 27
8 7 6 5 4 3 4 3 3 4 6 8 11 14 18 20 22 22 22 22 21 20 21 21 21 22 22 22 23 22 22 22 23 26 29 30 29 25 19 15 10 5 13 26 38 47 49 56 62 66 73 67 60 62 57 53 47 36 38 52 60 60 62 61 52 58 74 76 77 81 85 90 91 91 86 75 70 49 20 17 35 55 56 48 43 33 28 26
7 6 5 4 4 4 3 3 5 7 10 15 18 20 22 23 24 22 20 17 15 14 13 14 15 18 18 19 21 21 21 21 22 26 30 32 31 28 22 16 12 6 9 21 33 43 47 54 61 69 77 69 64 65 56 54 50 39 41 46 52 63 64 59 49 55 74 78 78 83 87 93 90 91 92 79 74 70 53 30 25 47 56 44 44 50 41 24
7 6 5 4 4 3 4 6 7 11 16 20 22 23 23 22 20 17 13 9 8 7 6 7 10 12 13 15 18 19 20 20 20 23 28 32 33 30 25 18 14 9 6 14 27 37 44 48 56 67 75 73 69 66 60 58 55 51 49 43 53 66 60 59 56 56 73 80 79 82 83 88 87 88 93 85 77 79 77 56 31 39 50 41 42 55 47 26
6 5 4 4 4 4 5 7 11 16 20 23 24 22 18 14 12 10 8 7 6 5 5 5 6 7 9 11 14 16 17 18 18 20 26 31 34 32 28 21 16 12 7 9 17 29 40 44 50 58 63 71 74 66 65 66 64 73 77 58 56 71 66 62 61 55 65 76 79 82 85 89 88 88 93 92 85 81 84 78 53 38 36 35 41 53 41 26
5 4 5 4 4 5 7 10 14 19 23 25 22 16 13 9 7 7 6 7 6 6 6 5 5 5 6 8 10 13 15 17 15 16 22 27 33 34 30 24 18 15 9 7 11 19 31 40 45 49 51 58 63 64 70 73 68 74 88 75 58 74 77 63 61 58 59 71 79 84 86 89 87 87 93 96 94 91 90 91 76 52 35 25 30 46 37 23
4 5 4 4 6 7 9 13 17 22 25 22 15 10 8 5 5 7 7 7 8 8 7 6 5 4 4 5 6 8 11 14 15 14 17 24 30 32 32 27 19 17 14 8 8 12 21 34 41 44 44 45 47 54 63 66 66 67 78 78 66 75 78 63 62 60 58 72 84 89 86 82 81 81 88 94 97 100 96 92 87 71 55 33 20 31 31 23
5 5 4 6 7 8 11 15 19 24 21 14 10 6 4 5 5 6 8 11 12 11 11 8 7 5 4 4 3 6 8 9 12 12 13 19 27 29 31 30 21 17 18 13 8 8 13 22 33 39 39 40 39 41 48 53 59 63 68 73 70 76 77 63 60 57 58 71 82 90 83 74 76 74 79 88 92 97 98 97 91 79 70 49 22 20 24 24
6 4 6 6 7 11 13 17 21 21 15 10 6 3 5 5 4 8 13 19 21 16 13 9 6 5 3 4 3 3 5 6 8 9 10 13 21 28 29 29 25 18 18 17 11 7 9 14 23 32 32 35 37 37 42 47 50 50 56 69 73 77 79 66 59 59 58 61 71 84 84 76 75 72 73 76 77 82 90 99 92 81 84 71 38 23 25 23
5 4 7 6 9 13 13 18 20 17 11 6 5 5 6 4 5 10 11 24 31 20 17 15 5 4 4 3 4 3 5 12 10 4 7 11 15 24 26 25 24 21 20 19 16 10 7 9 13 20 26 30 35 37 39 41 41 36 41 67 78 73 75 69 65 68 59 55 62 70 78 80 71 70 75 72 70 75 84 95 94 86 91 88 64 37 25 21
5 6 6 7 11 12 15 19 17 14 8 4 6 5 5 5 5 5 12 39 47 24 21 22 11 7 5 2 5 3 5 22 30 12 2 8 14 18 20 21 23 23 21 18 18 16 10 9 9 12 18 25 32 33 35 35 32 30 33 55 71 70 69 62 61 68 62 58 58 54 64 79 74 67 68 69 70 70 78 91 93 92 93 92 84 59 33 22
6 6 6 8 10 12 17 17 15 13 5 4 7 3 7 6 1 12 37 64 66 39 26 25 19 12 8 7 6 3 3 18 37 27 6 4 10 16 19 20 23 24 23 22 21 20 15 9 8 13 13 17 24 23 31 32 24 38 51 46 43 53 65 62 57 63 65 59 53 49 57 74 85 77 63 65 72 69 71 76 74 81 93 96 97 81 51 30
6 6 7 8 10 14 16 16 16 10 4 7 6 4 7 1 4 33 59 71 62 38 26 26 26 20 14 10 2 9 22 20 20 17 9 6 7 14 19 18 20 24 24 25 24 22 22 17 9 9 8 10 15 17 25 24 21 54 81 61 33 34 57 67 62 61 61 56 53 53 52 59 79 88 77 70 71 71 70 66 59 68 86 89 89 90 68 40
7 6 8 9 11 15 16 17 14 7 6 6 4 6 4 2 23 50 66 71 47 19 19 25 26 25 23 15 3 14 39 37 23 13 4 6 8 8 17 22 20 24 23 22 28 27 25 26 15 6 7 9 9 12 16 15 26 65 95 87 52 27 38 55 58 60 57 52 58 59 50 49 59 73 86 82 68 65 62 57 56 62 74 72 71 91 90 58
7 7 9 10 12 15 16 17 12 8 7 3 6 5 -0 13 38 58 71 66 34 12 17 20 23 27 22 18 9 7 27 38 37 31 10 1 9 6 16 32 27 23 22 22 41 49 34 22 16 11 7 10 8 10 17 14 26 58 73 73 58 32 32 40 39 49 55 49 50 53 47 49 55 61 79 85 70 62 57 51 53 56 62 64 66 87 102 82
7 8 10 9 13 16 17 18 12 8 5 4 6 -1 10 36 43 61 74 48 28 31 25 18 25 27 21 32 37 21 30 40 33 40 24 -0 8 8 10 30 34 30 23 20 45 69 55 24 17 19 8 9 10 8 17 11 23 61 59 45 47 35 32 41 35 37 52 52 43 44 44 46 59 67 75 78 68 63 61 54 53 56 57 61 67 75 89 96
8 9 10 10 13 15 16 18 12 7 6 5 3 2 32 56 50 71 69 24 30 54 41 32 30 21 21 51 73 57 55 49 21 28 34 13 10 9 9 20 29 31 22 19 41 61 56 30 20 20 12 16 11 5 23 11 14 62 60 31 38 35 31 49 47 29 34 45 43 44 44 40 48 58 63 67 62 60 65 61 53 56 60 62 67 66 71 94
9 9 11 10 13 16 17 18 11 8 7 2 3 13 39 54 52 68 62 38 54 64 48 44 36 21 18 47 80 77 76 67 26 18 32 35 31 22 27 33 27 32 28 24 37 43 38 31 26 21 14 19 10 20 57 33 6 48 57 31 42 54 49 44 33 21 21 33 42 47 47 41 42 48 51 56 60 61 62 64 59 56 61 62 63 63 66 91
10 10 11 11 13 17 17 17 11 7 7 1 7 26 45 52 41 43 57 59 49 35 28 27 25 23 28 61 79 61 68 72 43 31 32 41 50 36 36 39 27 41 51 45 52 54 40 29 29 26 18 18 8 25 69 44 4 36 52 27 37 72 74 39 18 20 19 23 34 38 40 42 40 43 47 48 55 65 65 64 64 59 58 58 56 59 69 92
11 10 13 12 14 18 17 17 12 5 6 3 12 38 55 60 50 47 67 55 20 25 35 15 22 45 55 82 80 50 65 69 43 50 49 38 46 43 43 37 20 40 65 66 71 75 63 41 30 26 21 20 9 15 58 58 19 21 30 15 27 72 80 49 36 36 26 29 36 30 27 37 42 42 48 54 54 62 68 65 60 57 55 54 54 56 65 85
12 11 12 13 16 18 17 17 12 6 6 6 23 48 52 54 53 44 47 33 11 39 60 33 47 83 78 72 63 49 72 74 42 43 48 35 40 54 64 49 27 40 67 79 79 76 75 61 46 38 28 24 17 10 33 52 32 12 13 9 19 57 74 65 67 65 54 52 48 38 30 33 45 48 51 62 59 55 60 57 51 49 50 51 53 56 60 70
13 12 12 16 18 18 17 17 12 6 4 9 28 41 27 22 26 14 11 18 10 26 64 72 74 90 81 66 63 53 59 69 47 29 32 35 45 61 71 62 46 45 63 83 85 75 76 77 67 54 37 23 21 18 12 21 35 33 17 2 14 56 81 73 67 62 58 59 52 49 50 43 46 53 54 57 56 54 55 50 42 42 47 51 53 55 59 62
14 12 12 17 19 19 19 16 13 7 5 12 20 19 8 2 6 7 7 17 14 14 54 88 78 72 78 78 77 66 62 71 58 45 50 48 55 69 74 76 66 44 49 71 80 75 74 79 76 65 55 37 20 22 15 7 35 58 37 9 19 59 74 61 67 71 54 50 51 48 55 57 51 51 53 52 47 47 51 46 41 46 51 53 55 57 59 61
14 13 13 17 20 22 19 16 14 9 8 18 15 4 6 5 2 8 10 12 18 20 43 69 61 55 71 83 81 71 73 80 69 75 87 72 70 74 65 75 78 52 39 53 75 83 73 76 85 78 74 57 22 19 23 8 18 45 52 43 35 43 47 39 61 80 54 42 54 52 52 60 59 53 48 48 49 46 47 45 45 56 58 54 58 60 61 66
15 13 14 18 21 22 20 18 15 6 11 28 26 9 5 6 1 6 12 13 17 25 36 45 47 53 58 67 76 69 69 77 77 89 97 84 83 76 55 64 79 61 36 37 67 85 75 78 87 80 77 62 31 21 23 15 12 18 44 70 56 39 51 50 44 50 48 51 59 58 59 58 57 59 52 51 56 52 49 41 40 60 69 61 62 63 66 75
16 13 15 17 20 25 21 18 15 12 23 30 20 9 4 4 5 3 7 13 14 22 28 27 41 58 52 50 63 62 61 74 81 89 92 83 85 86 73 67 69 60 37 24 45 70 77 82 81 79 81 66 41 27 20 19 17 8 20 50 49 33 45 58 42 25 38 64 69 65 70 63 55 61 62 59 56 51 48 35 32 61 79 73 70 68 71 76
15 14 17 15 21 26 19 20 19 21 44 38 5 2 7 2 5 5 2 9 12 16 22 23 30 41 43 56 70 65 65 78 80 83 90 87 87 91 86 70 61 62 48 27 34 55 70 80 83 84 83 72 54 35 24 29 35 26 12 14 31 38 36 45 44 25 30 62 78 75 72 65 61 62 59 56 49 45 45 39 42 65 77 76 74 71 71 70
16 15 17 15 22 25 19 27 20 14 51 56 11 0 10 2 4 7 1 5 11 12 15 19 24 30 36 51 61 55 60 76 82 88 92 84 80 81 80 72 60 55 52 40 39 49 57 69 81 83 84 85 77 51 36 49 67 60 28 8 34 58 45 36 42 37 32 41 58 72 70 62 63 60 52 49 46 45 51 54 65 79 80 83 81 73 72 71
17 17 17 15 22 24 20 33 35 21 32 36 8 -1 8 5 4 7 4 6 9 9 13 14 17 29 31 31 43 50 55 68 71 75 83 76 67 65 62 62 57 50 49 48 43 40 44 58 70 78 87 90 84 73 62 62 77 83 54 20 30 52 42 31 40 50 53 48 49 63 64 56 60 60 51 46 41 47 61 67 74 84 89 91 88 81 79 77
16 17 18 16 20 23 22 43 78 76 36 7 3 6 6 5 6 6 5 6 6 4 8 13 13 22 26 25 38 45 49 64 63 57 70 72 63 62 54 43 46 51 51 54 57 47 37 45 56 70 88 88 80 83 80 66 63 76 75 45 28 38 41 38 46 55 62 64 59 59 57 54 61 63 53 44 37 45 67 75 75 84 93 92 88 87 85 80
16 18 18 16 17 23 22 32 71 90 47 4 4 8 3 6 7 6 6 5 7 6 6 11 11 13 17 19 30 35 33 52 65 57 55 54 50 57 57 41 35 43 49 57 66 64 52 49 52 57 76 90 88 84 81 70 50 47 65 63 41 39 50 52 52 50 54 60 59 58 59 56 56 60 57 44 35 45 68 80 83 90 96 94 89 88 86 82
16 18 20 20 19 22 27 23 29 47 37 11 7 7 4 7 5 4 8 6 6 7 5 9 8 6 12 13 24 38 31 38 57 52 47 61 62 52 50 46 36 34 43 50 55 64 68 65 56 51 60 78 88 84 78 75 63 51 58 69 61 54 60 69 67 58 56 62 63 60 60 56 47 51 59 48 35 46 70 84 90 95 98 97 92 89 85 82
14 20 27 31 27 22 28 26 17 25 34 27 20 13 5 6 6 5 8 6 7 8 5 8 8 6 14 11 13 28 27 27 43 43 47 70 70 49 46 49 39 33 36 40 44 52 67 73 58 46 54 69 80 85 81 76 72 59 47 50 56 55 60 75 82 75 67 64 62 55 53 54 43 40 52 49 36 46 69 84 91 95 97 97 93 91 88 84
14 21 27 26 27 31 34 32 24 23 25 22 20 15 5 6 7 6 7 6 6 8 6 8 9 7 11 10 10 19 18 19 35 39 40 53 52 46 53 51 42 39 36 36 40 40 53 75 69 50 53 70 80 86 87 81 71 55 40 37 39 44 52 54 56 69 71 62 58 53 47 48 42 43 56 51 35 41 62 82 93 95 96 95 90 87 87 86
14 19 25 20 20 30 34 33 34 30 21 13 12 12 8 8 7 5 9 8 6 8 8 9 10 8 8 8 9 14 15 23 41 39 33 45 47 45 60 63 53 48 38 33 41 39 40 64 79 70 61 64 74 83 80 75 69 62 64 64 45 39 48 36 27 50 61 50 51 56 49 41 35 42 56 51 38 38 52 71 87 93 93 91 86 82 81 82
15 16 27 25 19 23 26 30 37 35 25 15 12 12 10 8 9 8 8 9 8 8 8 9 9 9 9 8 9 16 16 18 31 33 34 51 58 52 61 64 56 54 47 37 43 44 39 55 78 84 73 63 70 78 74 75 81 80 91 97 68 47 54 41 25 38 39 25 32 45 46 47 47 49 53 51 44 38 44 61 77 88 91 88 84 82 80 80
15 16 21 20 24 35 39 37 31 27 32 29 19 18 16 8 7 10 8 9 9 8 9 11 10 9 9 7 7 13 12 6 11 23 36 53 61 58 57 53 47 55 57 47 47 48 42 51 68 76 79 80 79 77 73 76 87 92 98 96 67 57 75 60 30 34 34 20 26 37 37 43 57 63 61 58 52 43 42 54 69 84 90 87 85 83 78 80
15 17 17 17 30 45 50 45 31 30 55 63 36 19 18 11 8 10 9 10 10 8 9 10 10 11 10 8 8 8 8 8 12 24 37 48 53 51 48 48 44 43 49 50 51 50 41 44 56 65 74 82 80 79 77 72 75 83 88 76 46 41 60 50 30 39 41 27 31 40 38 41 54 65 67 60 51 45 43 50 63 77 82 82 85 83 76 76
Wind_Speed
23 24 24 24 24 23 23 23 22 21 20 18 17 16 15 15 15 16 16 17 18 18 19 19 19 19 19 20 20 21 21 21 20 20 19 15 14 17 19 20 20 21 20 21 22 22 21 21 20 17 16 14 12 12 11 11 10 9 9 7 2 1 3 3 3 8 10 13 20 18 15 15 15 14 14 16 17 16 16 15 14 12 11 12 14 15 16 16
25 25 25 25 26 26 25 25 25 24 23 22 21 20 19 18 17 17 17 18 19 20 21 21 21 21 21 21 21 22 22 22 23 22 19 16 16 18 21 21 21 22 22 23 23 23 22 21 19 16 15 13 11 12 11 11 10 9 10 7 3 2 3 3 4 8 10 14 22 20 17 17 16 16 16 17 18 18 17 16 15 13 11 12 13 14 15 16
26 26 27 27 27 28 27 27 27 26 26 25 25 24 23 21 20 19 18 19 20 21 22 22 23 23 23 23 23 24 24 24 25 24 20 17 17 20 22 23 23 23 23 24 23 23 22 20 18 16 14 13 12 12 11 11 10 9 10 7 4 4 3 4 5 8 10 15 23 22 19 17 16 18 18 19 20 20 19 17 16 14 13 13 13 13 14 15
27 27 27 28 28 28 29 29 28 28 28 27 27 27 26 25 23 22 20 20 21 22 23 24 25 25 25 24 25 25 25 27 27 24 21 19 19 21 24 24 24 25 25 24 24 23 22 19 18 17 16 15 13 13 12 12 11 10 10 8 6 5 4 4 6 9 11 17 26 24 21 18 16 17 17 19 20 21 20 18 17 17 16 15 14 13 14 16
27 27 28 28 29 29 29 29 29 29 29 28 28 28 28 27 26 24 23 22 22 23 24 25 26 26 27 26 27 26 27 29 27 25 24 21 21 24 26 25 25 26 26 26 25 24 22 20 19 19 18 17 15 14 13 12 12 10 9 9 8 7 5 3 5 10 12 22 28 24 22 19 18 17 16 17 19 19 19 17 17 18 17 16 16 15 15 16
28 29 29 30 30 30 30 29 29 29 29 29 29 29 28 28 28 27 26 24 24 24 25 26 27 28 29 28 29 28 31 31 24 24 25 23 24 26 27 26 26 27 27 27 26 24 22 20 20 20 19 18 17 15 14 13 13 11 9 10 9 9 7 3 5 10 15 26 28 23 21 19 18 18 16 16 17 17 18 17 17 18 17 16 17 16 16 16
30 31 31 31 31 30 30 29 29 29 29 29 29 29 29 29 29 29 29 28 26 26 26 28 28 30 31 31 31 30 34 33 25 27 27 25 27 28 28 27 27 28 28 28 27 25 23 22 22 21 21 20 18 17 15 14 14 12 9 10 11 9 6 4 5 8 17 28 26 22 21 19 17 17 16 15 16 17 18 17 17 18 17 16 17 17 17 16
32 32 32 32 32 31 30 30 29 29 29 29 30 30 30 30 30 30 30 30 29 28 28 28 29 31 32 33 32 33 37 34 28 31 29 27 30 30 28 28 29 29 30 30 29 28 26 25 23 23 23 22 20 18 16 15 14 14 11 11 11 8 5 5 5 9 21 28 26 23 20 18 17 15 15 15 15 17 18 17 18 18 17 16 16 16 16 16
33 33 33 33 33 32 32 31 31 30 30 30 30 30 30 31 31 31 31 32 31 30 29 29 30 31 33 34 33 37 39 34 31 35 32 30 32 31 29 29 31 31 32 32 31 30 28 26 25 26 26 24 21 19 18 16 15 15 14 12 11 8 6 5 4 10 24 26 24 23 19 17 15 15 15 14 15 17 17 17 18 18 17 16 15 15 16 16
34 34 34 35 35 34 33 33 32 32 31 31 31 31 31 31 31 32 32 32 32 32 31 30 31 32 34 35 35 40 39 34 35 36 34 33 33 33 31 31 33 33 34 34 32 31 30 28 28 28 26 23 21 20 19 17 16 17 15 12 12 7 5 5 2 12 25 25 22 19 18 17 14 14 14 13 15 17 17 17 18 18 17 16 15 15 16 16
35 35 35 36 36 35 34 33 33 32 32 32 32 32 32 32 32 33 33 33 33 32 32 32 32 33 35 35 39 41 36 35 38 37 36 35 35 34 33 33 34 35 36 35 35 34 32 31 30 27 26 25 24 22 20 18 17 17 16 13 13 8 5 5 5 13 22 23 22 18 17 18 16 15 14 13 15 16 17 17 17 17 16 16 15 15 15 15
35 35 36 36 36 35 34 33 33 32 32 32 32 33 33 33 33 33 33 33 33 32 32 32 32 33 34 36 40 39 35 38 40 37 37 37 36 36 34 34 36 37 38 37 37 36 35 33 30 28 28 26 25 24 21 20 18 17 17 14 12 10 8 8 8 11 16 20 23 20 17 19 18 16 15 14 15 16 17 17 17 17 16 16 15 15 15 14
35 36 36 36 36 35 34 33 32 32 32 32 33 32 32 32 31 31 31 30 30 31 31 31 31 32 34 36 38 37 37 40 39 38 39 38 39 38 36 36 37 38 39 38 38 37 35 33 31 32 29 26 26 25 21 20 19 18 19 14 10 12 11 11 10 9 12 17 23 23 19 18 18 17 16 14 14 15 16 17 18 18 17 16 16 15 15 14
35 36 36 36 35 34 33 32 32 32 32 32 31 31 30 29 29 28 27 26 26 27 27 28 29 30 32 34 35 36 38 39 38 38 39 40 40 39 38 38 38 39 40 40 38 36 35 33 33 33 29 27 26 22 19 20 20 19 18 14 11 13 12 13 11 10 10 13 18 22 21 18 17 19 17 14 15 15 16 17 18 18 18 17 17 16 15 14
35 36 36 35 34 33 32 31 31 30 30 29 29 28 26 26 25 24 23 22 22 23 23 24 25 26 29 31 33 34 36 38 39 38 39 40 41 40 39 39 39 40 41 41 39 36 34 34 34 32 30 29 25 20 20 21 21 20 18 16 14 14 14 14 13 12 12 12 13 19 22 18 17 19 17 15 15 16 16 17 18 18 19 19 18 17 15 14
35 35 35 34 33 32 31 30 29 29 27 26 25 24 23 22 22 22 21 20 20 20 20 21 21 23 25 27 30 32 35 37 37 37 39 40 41 41 40 40 40 40 41 41 40 38 36 35 35 33 31 30 26 24 24 22 22 20 18 18 17 15 14 13 15 14 12 13 13 18 21 17 17 19 18 17 16 16 16 16 18 18 19 20 19 17 16 15
34 34 34 33 32 31 30 29 28 26 25 23 22 21 21 20 20 20 20 19 19 19 19 19 19 20 22 24 27 30 33 34 35 36 38 40 41 41 41 41 41 41 41 42 42 41 39 37 36 34 32 31 29 28 27 25 23 21 19 20 19 16 15 15 16 15 13 15 15 16 18 15 17 19 18 18 17 16 16 15 17 18 18 19 19 18 17 17
33 33 32 31 31 30 28 27 26 24 22 20 20 20 20 19 19 19 18 18 18 18 18 18 18 19 20 21 24 27 30 31 33 35 37 38 40 41 41 41 42 41 42 42 44 43 41 40 37 35 34 31 31 31 28 26 23 20 20 22 20 17 17 16 16 16 14 14 15 16 16 14 16 18 18 19 17 17 18 17 16 16 18 18 18 19 19 18
32 31 30 30 29 28 27 25 24 22 20 19 19 19 18 17 17 17 17 17 17 17 18 18 17 19 19 19 22 24 27 30 32 34 35 37 38 40 41 41 42 42 42 43 44 45 44 42 39 39 38 34 33 31 26 25 25 22 20 23 24 19 17 17 16 16 15 14 14 15 15 13 15 17 17 19 19 17 18 18 16 15 16 17 18 19 20 19
30 29 29 28 28 27 25 24 22 21 19 18 17 17 16 16 17 17 17 18 18 17 18 18 17 18 18 19 20 22 25 28 30 32 34 35 37 38 40 41 42 42 42 43 45 45 45 44 42 41 38 34 33 28 26 30 29 26 22 23 27 22 18 19 17 16 15 14 14 14 15 13 14 16 17 19 19 17 18 18 16 15 14 15 18 19 20 20
28 28 27 27 26 25 24 23 21 19 18 17 15 15 15 17 18 17 17 17 16 16 16 17 17 18 18 18 19 20 23 26 29 31 32 33 35 37 39 40 41 42 42 44 46 46 46 45 45 42 38 35 33 29 32 34 29 25 24 25 29 25 21 21 19 18 17 15 13 13 15 14 13 14 15 16 17 17 19 20 17 16 15 15 17 19 21 21
27 26 26 25 25 24 23 21 19 17 16 14 14 14 16 17 17 17 16 15 14 13 14 14 15 16 16 17 18 18 21 25 28 29 30 32 33 36 38 40 41 41 42 44 45 46 46 46 45 42 40 37 34 33 37 35 28 25 24 27 30 24 22 22 20 20 19 16 14 13 14 15 14 14 13 14 16 17 19 21 21 20 17 15 16 19 20 20
25 25 24 24 23 22 22 20 18 15 14 13 13 14 16 17 17 16 14 12 11 11 11 11 11 13 14 15 16 17 19 23 26 28 30 31 33 36 38 38 40 40 43 44 44 44 45 45 45 42 40 39 39 40 39 34 30 27 24 25 28 25 23 23 21 22 21 18 16 13 12 14 15 15 14 16 15 15 17 21 23 21 18 17 17 19 19 20
23 23 23 23 22 21 21 18 16 13 12 12 12 15 17 18 17 14 14 11 9 11 12 10 9 9 11 13 14 16 17 19 24 28 30 31 33 34 34 36 38 40 43 44 42 42 42 43 43 41 42 44 44 42 38 35 31 29 28 23 24 26 25 23 23 22 21 20 19 16 13 11 13 16 17 17 15 12 15 20 22 21 20 19 18 18 18 18
22 22 22 22 21 20 19 17 14 12 11 11 12 15 17 17 16 14 14 10 8 13 14 11 10 6 7 9 12 14 16 19 22 26 29 32 32 30 33 37 38 40 42 41 41 40 39 42 42 40 46 47 43 41 39 37 33 30 31 26 23 26 27 27 26 21 19 21 21 19 16 11 12 18 19 16 15 14 16 18 19 20 21 20 18 18 17 17
21 21 21 21 20 19 18 16 13 11 10 10 12 15 16 16 15 13 14 9 8 14 15 12 11 6 5 6 10 10 13 18 21 24 27 30 31 32 34 36 36 38 40 39 39 40 38 42 44 43 48 47 41 43 40 38 35 26 26 31 32 28 25 27 25 21 20 21 21 21 19 15 11 15 19 17 15 16 17 16 15 16 19 19 19 18 17 17
20 21 21 20 19 18 17 15 12 10 10 10 12 15 15 15 13 10 10 8 6 13 12 11 11 8 6 5 7 7 9 15 19 22 25 28 30 32 33 34 36 37 40 40 40 40 38 42 47 46 46 45 43 43 40 38 34 21 18 29 37 33 28 26 22 20 21 20 21 22 21 19 14 13 15 17 19 17 16 15 14 14 17 19 19 18 18 18
20 20 20 19 19 17 16 14 11 10 9 10 12 14 13 12 10 9 8 4 8 14 11 9 9 8 7 5 4 9 11 13 14 19 24 26 28 30 29 30 35 37 40 39 35 36 39 42 46 45 43 42 42 42 39 38 33 24 21 24 31 36 33 29 24 20 22 23 21 20 19 19 19 18 15 16 20 20 18 16 15 15 16 17 18 19 20 20
19 20 19 19 18 16 16 13 11 9 9 11 12 13 12 9 10 12 8 6 12 14 11 10 8 7 7 4 1 6 11 12 12 17 20 24 27 29 29 28 32 37 40 36 29 30 40 44 42 40 40 40 39 39 38 38 34 29 31 28 27 35 34 30 28 22 23 26 24 21 20 18 21 24 21 16 17 20 20 18 17 18 17 17 18 20 22 23
19 19 18 18 17 16 15 12 10 9 9 10 12 12 10 8 9 11 8 8 11 10 10 11 8 8 8 4 3 1 7 11 14 15 17 22 25 27 31 30 30 35 37 36 30 26 34 43 43 39 40 40 40 40 38 40 36 29 34 35 31 33 32 27 27 26 25 26 24 23 23 21 21 24 23 18 15 17 19 18 18 18 19 18 17 17 21 25
18 19 18 18 17 15 14 11 9 8 8 10 11 10 8 7 8 9 9 9 8 6 7 9 8 8 6 3 2 5 3 6 12 16 14 17 22 25 28 30 29 32 34 35 34 31 32 41 45 43 40 39 40 39 36 39 41 31 32 36 29 28 29 24 25 31 31 25 21 22 25 25 24 25 25 22 19 18 18 17 18 18 18 18 16 16 18 24
18 18 18 17 16 15 13 11 9 7 8 10 10 8 8 9 7 6 8 8 8 6 4 6 7 7 5 3 3 3 2 5 10 15 15 15 19 22 23 25 26 26 28 32 34 35 37 39 42 42 40 40 41 37 30 36 45 37 31 32 26 21 25 28 28 31 32 27 22 22 25 26 25 26 27 25 21 20 21 19 18 18 18 16 15 14 17 23
18 18 17 17 15 14 12 10 8 6 7 9 9 8 7 8 8 6 6 5 6 7 4 4 5 3 5 4 2 2 1 6 7 10 15 15 16 20 21 23 25 23 23 27 29 30 35 37 38 39 40 43 43 37 26 31 43 40 32 32 27 19 22 29 30 30 31 29 26 26 27 25 25 27 27 26 24 21 22 21 19 18 18 15 14 13 14 20
17 17 17 16 15 13 11 9 7 5 7 8 7 6 5 6 7 5 6 5 6 6 4 4 2 2 4 1 5 5 3 6 6 9 15 15 16 18 19 22 26 25 22 22 21 21 27 34 37 39 41 43 42 38 27 24 36 41 35 33 31 23 21 25 26 27 28 25 25 29 30 26 27 29 27 26 27 23 21 21 20 19 17 14 13 12 10 16
17 17 17 16 14 12 10 8 6 4 6 7 7 5 5 5 5 3 4 6 6 5 2 3 3 1 4 2 3 3 4 6 6 10 13 15 17 16 14 18 22 22 22 21 20 20 22 25 29 33 38 41 39 38 34 28 31 38 37 36 34 26 21 21 22 22 22 22 25 28 30 28 28 31 29 25 25 25 23 24 22 19 18 15 12 12 12 14
16 17 16 15 13 11 9 7 5 4 5 6 5 4 4 5 5 4 4 5 4 3 2 2 2 2 4 2 2 3 4 4 4 10 12 13 16 15 13 14 17 22 24 20 19 21 18 15 21 28 34 40 39 36 41 37 28 28 35 40 35 26 21 21 21 22 23 23 26 27 26 28 28 28 28 25 23 22 22 25 24 20 18 16 14 14 14 15
15 16 16 15 12 10 9 7 4 3 4 6 5 3 4 6 5 4 4 3 4 4 3 2 1 1 1 2 4 3 1 2 2 6 8 11 16 16 14 12 17 25 28 23 20 23 23 16 19 25 27 37 42 38 40 41 28 20 26 35 35 27 24 25 20 20 25 24 23 25 25 26 26 26 26 24 23 22 21 23 24 20 18 17 16 16 15 16
15 16 16 14 12 10 8 6 4 2 3 4 4 3 4 5 4 4 4 3 4 5 4 2 0 0 2 1 5 3 1 1 4 5 4 8 13 16 15 14 16 21 28 27 20 20 26 20 15 20 22 31 41 39 37 40 36 28 19 21 32 32 27 30 25 19 24 25 21 23 24 25 25 25 26 23 21 22 21 22 23 19 17 18 16 16 15 15
14 15 15 14 12 9 7 6 4 2 3 4 4 3 3 5 4 3 3 3 4 4 4 3 1 1 1 2 3 3 3 3 4 4 2 5 9 12 17 16 14 16 24 28 22 18 23 21 15 17 19 26 37 40 38 37 39 38 28 18 27 33 27 28 31 27 26 24 22 22 22 24 26 25 25 22 20 22 20 22 24 18 15 17 15 14 15 15
14 15 15 13 11 9 6 5 4 3 4 4 3 2 2 3 3 3 2 3 4 4 3 3 2 1 3 3 3 3 4 3 3 2 2 5 6 7 12 15 14 15 20 26 27 22 20 21 17 13 14 22 33 39 39 36 36 42 40 30 27 32 31 29 32 34 29 21 20 21 21 24 27 27 24 19 18 19 18 22 25 17 11 13 14 13 15 16
14 15 15 13 11 9 6 4 4 4 4 4 4 2 1 2 2 2 2 2 2 2 2 2 2 2 2 1 3 5 4 3 4 3 1 3 6 6 8 11 14 15 16 21 27 27 25 24 19 13 15 19 27 34 35 31 29 36 43 39 28 27 32 30 29 34 33 23 17 18 22 25 26 26 24 19 17 17 18 22 24 15 8 10 12 13 13 14
13 14 14 13 11 8 6 5 5 4 3 3 5 4 2 1 1 2 3 2 2 2 1 1 2 3 2 1 3 5 5 5 5 3 2 4 7 8 8 9 11 14 17 19 23 28 29 26 21 16 17 17 17 24 29 26 23 27 36 39 29 24 30 31 27 29 31 28 21 18 23 27 25 23 22 20 19 19 19 22 20 13 8 7 9 12 11 10
13 14 14 12 11 9 6 5 5 6 7 5 6 6 4 2 1 1 2 3 2 2 2 2 2 3 3 3 4 4 5 6 6 6 8 9 8 9 8 8 10 14 17 19 22 27 28 27 25 21 17 17 15 16 23 28 26 20 26 37 35 29 30 30 27 23 22 25 26 24 27 28 24 21 21 22 22 21 21 22 19 15 12 11 10 11 10 10
12 14 13 12 12 9 7 5 3 6 9 7 8 8 6 4 3 1 1 2 3 2 2 2 2 3 4 4 6 6 5 6 8 8 9 11 10 9 9 9 11 13 16 18 19 24 27 28 29 26 20 18 20 20 22 29 29 22 21 29 33 30 25 24 25 24 21 20 21 24 29 31 24 19 19 23 24 23 22 22 21 17 14 14 13 12 11 11
12 13 13 12 12 10 9 7 5 7 9 8 9 10 9 8 5 3 2 1 1 2 2 2 2 3 4 4 6 9 8 7 10 11 11 13 14 11 8 9 12 13 15 17 18 20 24 27 30 31 29 23 22 23 24 26 29 28 21 19 25 29 27 23 25 27 23 20 20 22 29 35 30 21 20 24 27 27 24 23 22 18 15 16 16 14 12 12
12 13 13 12 12 10 10 10 8 9 8 8 10 11 10 10 8 6 5 3 3 3 3 3 3 2 4 5 6 8 10 10 11 13 11 12 14 13 10 10 11 13 16 18 19 21 23 25 28 31 33 30 25 23 24 24 25 27 25 22 26 31 30 26 25 25 26 26 26 28 31 35 33 27 24 26 30 30 27 24 22 20 18 20 20 17 14 13
12 13 13 12 12 10 10 10 10 10 9 9 11 11 11 11 10 8 7 6 5 6 6 6 6 5 4 6 7 8 11 12 13 14 13 11 13 13 12 12 13 13 16 18 20 23 23 22 24 29 31 31 27 23 23 26 27 30 33 33 32 31 30 28 23 21 25 27 26 29 31 30 30 29 28 28 32 33 30 26 24 21 20 20 21 20 18 16
11 12 13 12 12 11 9 10 12 13 13 12 12 12 11 12 11 9 8 8 7 7 8 7 8 8 7 8 9 10 12 12 13 15 14 13 14 13 12 14 15 14 15 18 20 24 24 20 21 27 29 28 26 23 22 23 27 32 35 36 36 33 32 33 27 22 24 27 27 30 30 28 29 29 27 29 33 35 33 29 26 23 21 19 19 19 20 20
12 12 13 13 13 12 11 11 12 13 14 15 14 13 12 12 11 10 8 9 9 8 9 9 8 9 9 10 11 13 13 11 13 15 13 12 12 12 11 12 14 14 16 19 20 23 26 22 19 24 29 29 27 24 22 21 22 28 29 30 35 37 35 35 33 27 28 31 33 32 30 30 32 30 28 29 32 34 35 32 29 26 24 22 20 18 19 20
13 12 12 13 13 13 13 12 12 13 14 15 15 14 14 13 12 10 9 9 9 9 9 9 9 9 9 10 12 13 12 11 12 11 10 10 10 10 12 12 11 13 16 18 20 22 25 25 20 20 24 27 27 25 25 22 17 18 21 24 30 34 34 35 36 34 34 36 36 34 30 29 30 28 28 30 32 34 34 33 32 30 27 26 25 23 20 17
14 13 13 13 12 13 13 13 13 14 13 14 15 14 13 14 13 11 9 9 9 9 8 9 9 9 9 10 11 11 9 9 10 9 9 10 8 7 10 10 10 12 13 16 19 20 23 26 25 21 20 22 24 25 27 27 21 16 18 26 32 31 30 35 39 37 35 36 36 36 36 33 29 25 27 30 31 33 34 34 34 33 31 30 29 26 23 19
14 14 14 13 12 12 13 13 13 12 10 11 14 14 13 14 13 11 11 10 8 8 8 8 8 8 8 8 8 6 4 6 8 8 8 8 7 7 8 8 10 12 12 14 17 19 23 26 24 22 23 23 23 25 26 28 27 24 24 28 34 34 32 35 38 35 34 36 36 36 37 35 30 25 26 30 32 32 33 33 33 33 33 33 32 28 25 22
Wind_Direction
339 338 337 336 335 334 333 331 328 326 322 318 313 306 300 294 288 283 279 276 273 270 267 265 262 258 255 250 247 246 245 245 242 239 236 229 218 210 210 211 213 214 210 208 210 211 210 210 209 208 208 208 208 208 210 212 220 216 210 230 245 297 303 310 242 213 222 209 192 184 178 172 169 176 179 175 172 168 167 165 164 168 173 169 162 152 143 139
340 339 338 338 337 335 333 331 328 326 322 319 314 309 303 296 290 285 279 274 270 268 266 263 261 259 256 252 248 245 244 244 243 240 235 226 219 214 211 210 212 212 210 211 213 212 211 211 209 210 211 210 211 210 209 212 221 219 218 241 242 222 286 282 235 216 221 208 188 179 180 179 175 180 183 178 174 170 169 166 162 165 173 173 164 157 147 140
341 340 339 338 336 334 332 329 327 324 321 318 314 311 306 300 295 288 281 273 269 265 264 262 260 258 255 252 249 246 243 242 242 240 234 223 218 215 213 212 211 211 210 213 215 214 212 210 209 212 215 214 213 211 209 211 217 220 223 241 233 228 283 291 246 214 222 205 183 177 179 178 179 184 185 182 178 173 171 169 163 162 169 172 166 162 153 143
341 340 338 337 335 333 331 328 325 322 319 316 313 310 306 303 298 291 284 276 269 264 261 259 257 256 254 251 248 246 244 243 242 238 232 223 217 216 215 214 212 211 211 213 214 216 213 208 207 211 214 213 210 208 208 209 212 218 226 234 228 233 273 296 249 224 226 198 182 180 179 177 182 185 185 186 181 177 175 172 167 162 165 170 167 166 159 149
341 340 338 337 336 333 330 327 324 321 318 315 312 309 306 303 299 294 286 279 271 264 259 256 254 253 252 250 247 245 242 243 242 237 232 222 217 216 216 215 213 211 210 212 214 215 213 206 207 211 215 213 208 207 206 207 209 214 225 230 228 237 254 276 243 235 219 190 181 181 180 180 183 181 187 190 182 180 179 174 171 165 165 170 168 169 167 156
343 341 339 337 335 332 329 326 323 320 317 315 312 309 306 302 298 294 288 281 273 266 260 255 252 250 250 248 246 244 241 243 241 238 234 221 219 218 215 215 213 211 209 212 214 215 213 207 208 212 215 212 207 206 203 206 209 209 221 228 229 236 252 262 245 244 207 183 177 178 180 184 183 179 187 190 181 183 182 175 172 168 167 173 171 171 172 161
343 341 339 336 333 330 328 325 323 320 318 315 312 309 305 301 297 294 289 284 276 269 261 255 250 248 248 246 245 242 241 243 235 233 231 219 220 219 216 213 211 211 209 211 213 214 213 207 208 211 213 211 207 204 202 205 207 206 214 226 228 232 257 263 245 233 191 178 177 176 178 184 183 178 183 187 182 183 181 176 174 169 169 175 174 175 174 163
340 339 337 335 333 330 328 326 324 321 319 315 312 309 305 301 297 293 289 285 279 272 264 256 249 246 245 244 243 240 241 242 233 231 229 218 220 219 215 211 209 210 207 209 212 212 211 208 208 211 212 209 204 204 202 204 206 206 210 220 224 227 247 254 253 212 182 177 180 180 181 186 182 177 183 185 182 180 178 177 176 171 170 174 177 180 176 165
338 337 336 335 334 332 330 328 325 322 319 316 312 308 304 300 296 293 289 285 280 274 267 259 250 245 243 242 241 239 241 240 232 232 229 220 220 219 213 209 208 207 206 209 211 211 211 208 207 210 211 207 203 203 201 202 205 206 208 215 221 225 229 240 267 203 186 181 183 183 185 187 180 178 183 182 182 179 177 178 177 173 171 173 179 184 180 171
336 336 336 336 334 332 330 328 326 323 319 316 312 307 302 298 294 291 287 283 279 275 269 261 252 245 241 240 238 239 240 236 232 231 228 222 220 218 212 208 208 206 206 207 209 211 211 209 209 211 211 208 205 204 203 204 204 206 206 214 224 224 207 214 195 183 188 188 188 188 183 183 182 182 180 177 180 178 175 179 180 177 174 174 180 188 186 180
335 336 336 335 334 332 330 328 326 322 319 315 311 307 302 298 293 289 286 282 278 273 268 262 254 246 241 238 236 238 237 234 233 230 227 223 220 218 212 209 207 206 206 206 208 210 210 210 208 211 212 208 205 203 205 206 204 205 206 214 222 210 175 199 186 174 188 193 193 193 184 183 188 187 180 175 180 179 175 179 182 181 178 177 182 190 191 189
335 335 336 336 334 332 331 328 326 322 318 314 310 307 303 299 295 291 286 282 278 273 267 261 255 248 242 238 236 237 233 231 231 228 226 223 219 218 212 209 208 206 205 205 208 210 211 210 207 210 211 207 206 205 206 208 205 204 208 218 219 202 177 192 200 182 196 205 203 203 197 192 192 190 184 178 181 181 176 177 181 183 182 181 185 192 194 191
335 336 337 336 335 333 331 329 326 322 318 315 312 308 305 302 298 294 289 285 279 273 267 261 255 249 243 239 238 235 230 229 229 226 225 222 219 217 212 210 209 207 206 206 208 210 211 211 209 212 209 206 209 207 205 208 207 205 212 217 212 208 191 185 200 194 200 210 209 209 206 199 195 192 189 182 182 180 176 179 180 182 184 185 187 192 195 192
337 338 338 337 336 334 332 329 326 322 319 316 314 311 309 306 303 299 295 289 283 276 270 263 257 251 245 241 237 234 230 229 227 224 224 222 219 216 212 210 209 208 207 207 208 210 212 212 212 213 209 208 208 205 206 210 208 208 215 216 208 218 205 184 197 205 204 207 208 209 206 203 200 193 188 186 187 181 176 180 181 182 185 188 191 191 193 193
339 339 339 339 337 335 332 330 327 324 322 319 317 315 314 311 308 304 300 295 287 280 273 266 259 253 247 242 237 234 231 228 225 223 222 221 219 216 213 210 210 208 207 207 207 209 212 214 215 215 213 211 207 206 210 210 209 208 212 217 213 221 218 198 199 208 210 208 205 205 204 207 205 196 192 190 190 186 180 180 181 186 189 189 192 190 189 192
340 340 340 340 338 336 333 331 329 327 324 322 321 319 318 316 312 308 304 298 290 282 276 269 262 255 249 243 237 233 231 228 225 222 220 220 218 216 213 211 211 210 208 207 207 208 210 213 216 216 215 213 208 210 212 208 209 208 209 220 218 215 224 216 204 205 211 215 206 202 208 213 209 203 200 196 191 191 189 184 183 188 193 193 190 187 187 190
342 341 342 341 339 337 335 333 331 329 327 325 323 321 319 315 311 307 302 297 290 284 277 270 264 257 249 243 237 233 231 228 225 222 219 219 218 215 213 211 211 210 209 208 208 208 208 210 213 214 217 214 210 213 214 210 210 208 209 222 223 216 227 226 211 207 209 216 211 205 213 215 208 205 202 201 195 193 194 192 191 190 193 196 192 188 187 189
343 343 343 342 340 339 337 335 333 330 326 324 321 318 316 312 310 306 302 298 291 285 278 271 265 258 250 243 237 233 230 227 224 221 219 218 217 215 213 212 211 211 211 209 209 209 208 209 210 212 215 213 214 215 214 214 212 213 216 223 228 223 226 225 217 212 206 211 212 205 211 213 208 206 203 203 198 194 197 197 197 197 196 196 195 193 189 188
344 344 344 343 342 340 338 336 333 328 323 321 319 316 315 314 312 309 305 299 292 286 279 272 265 258 252 245 238 232 229 225 222 220 218 216 216 215 213 212 212 211 211 211 211 210 209 209 209 212 212 209 213 214 215 220 214 212 219 224 229 227 222 222 222 218 205 205 210 199 200 206 207 208 208 206 202 202 203 199 197 201 202 199 197 197 193 190
344 345 346 344 343 341 339 336 331 326 322 319 319 317 318 318 318 315 310 304 297 288 279 272 264 258 253 247 240 233 229 225 222 219 217 215 215 214 213 211 211 212 212 212 212 211 210 211 211 212 212 210 212 209 214 222 215 211 215 221 229 228 223 224 224 224 213 205 211 203 198 204 206 207 210 207 206 208 206 204 202 200 207 206 201 200 197 194
345 346 347 345 344 342 339 336 331 326 323 322 323 324 327 328 326 323 319 312 304 295 284 273 264 258 252 246 239 232 228 224 222 219 216 215 214 213 213 211 211 212 213 213 213 212 211 212 212 213 213 212 210 209 216 220 214 214 215 220 229 229 227 226 220 223 218 206 214 214 204 205 208 206 207 207 209 212 210 210 208 201 208 214 208 205 203 199
346 346 347 345 344 342 339 336 332 328 327 326 328 332 336 336 334 332 328 324 317 307 294 280 267 258 250 244 237 231 227 224 220 217 214 213 212 212 211 209 210 211 213 214 213 212 212 213 214 213 214 213 210 211 217 217 212 213 217 225 230 230 231 228 221 224 220 209 216 218 207 208 218 215 205 203 207 214 215 213 211 205 206 212 212 212 210 205
345 347 347 345 345 342 339 337 334 332 330 329 334 340 342 342 341 340 336 334 332 329 318 298 277 258 247 241 234 229 225 223 220 215 212 211 211 212 211 209 209 211 213 214 214 213 214 215 216 215 215 215 213 212 213 213 212 215 220 231 235 231 232 229 223 228 225 215 216 216 210 212 223 228 215 208 209 216 219 216 212 208 206 209 212 213 212 211
345 347 345 345 346 342 340 338 335 335 332 333 341 346 348 347 345 342 337 336 340 351 351 331 307 275 251 239 231 228 222 221 222 216 210 210 211 211 210 210 209 211 214 213 213 214 214 217 217 217 219 217 215 215 214 214 214 217 220 231 242 233 228 227 224 227 225 219 220 221 219 216 224 236 231 220 217 219 223 220 213 208 207 210 213 214 214 214
345 346 344 345 345 342 341 338 336 335 333 337 345 350 352 348 347 346 341 338 338 351 354 344 333 305 265 243 228 225 217 216 222 219 211 209 208 208 209 209 208 211 214 213 213 213 214 216 214 216 220 218 217 218 217 217 216 220 221 225 237 230 224 226 224 224 224 220 224 227 229 228 228 239 240 230 221 219 220 220 217 213 212 213 216 218 217 218
345 345 344 345 344 342 341 337 336 335 333 341 348 354 354 349 354 355 353 358 341 341 345 343 343 334 307 263 228 223 218 218 223 220 215 211 207 207 209 207 207 211 213 211 212 211 213 216 213 215 218 216 218 219 218 218 215 219 231 231 230 229 227 228 225 224 223 223 226 227 230 231 226 233 236 231 225 221 219 219 221 224 222 223 225 221 218 222
344 344 344 345 344 342 340 337 336 334 336 346 351 356 355 354 4 11 24 39 331 322 334 343 346 340 329 285 218 197 209 221 225 222 216 212 210 209 210 208 207 212 212 209 210 211 212 217 215 214 217 216 217 218 217 218 212 208 235 236 228 227 231 229 226 226 226 228 229 225 226 229 230 231 228 226 226 223 223 226 229 229 225 228 235 230 222 222
344 344 345 346 344 341 340 337 335 334 339 347 353 358 357 3 17 15 31 46 304 314 326 333 340 336 329 307 212 185 203 217 223 226 218 211 211 208 208 210 208 212 214 208 208 213 215 218 217 214 216 217 218 218 216 214 207 203 218 228 222 222 229 230 227 228 230 232 232 228 227 230 238 244 239 232 232 227 224 229 235 236 230 229 235 235 228 223
344 344 345 346 345 342 340 335 334 337 340 350 356 357 359 15 26 17 12 331 313 319 322 324 336 340 339 335 193 186 210 219 217 226 220 212 212 207 205 210 208 211 213 204 202 216 220 220 218 215 216 218 218 217 216 210 205 211 219 222 220 220 226 230 227 228 233 233 233 235 237 235 240 248 250 242 234 230 228 225 228 233 235 235 234 233 231 226
342 343 346 346 345 342 340 335 333 336 342 354 356 356 8 20 21 17 4 325 314 318 323 326 332 337 348 18 14 262 216 220 217 223 222 212 213 211 208 211 211 212 211 202 199 213 222 219 216 215 214 217 217 215 218 211 203 214 225 224 224 223 225 230 228 227 231 232 232 236 241 237 237 246 253 251 239 235 236 230 225 229 233 236 236 237 239 232
341 343 345 345 344 342 340 335 331 335 343 356 358 0 15 12 9 10 351 329 322 330 328 316 318 333 359 71 270 279 244 236 223 218 222 213 210 213 213 215 217 215 209 204 205 212 218 216 214 214 211 213 215 213 219 214 205 214 224 220 222 224 224 228 227 226 228 231 234 238 241 237 236 244 251 254 250 242 241 238 232 233 235 238 241 247 254 239
339 342 345 344 343 341 341 335 330 337 345 355 360 3 16 10 359 349 343 344 334 323 286 287 313 335 9 87 218 277 4 287 238 211 215 211 206 210 211 215 218 216 211 207 210 216 220 218 217 215 211 214 213 207 213 214 208 215 221 215 215 217 222 227 229 229 229 231 232 233 238 236 235 240 244 250 255 247 242 241 238 238 239 241 242 254 266 240
338 342 344 344 342 340 342 336 331 339 345 358 4 3 16 1 330 322 351 358 323 310 291 299 318 345 32 51 258 320 24 249 239 216 220 212 207 208 207 211 210 205 207 209 211 219 224 222 220 217 214 217 215 206 211 215 210 215 219 214 208 208 225 228 228 233 230 229 234 235 238 240 238 239 240 245 249 247 243 241 242 243 241 241 240 254 264 228
337 341 344 343 340 338 340 336 333 341 344 357 6 358 357 337 322 347 8 347 332 337 323 323 354 12 14 17 249 288 248 223 220 219 222 211 206 207 205 211 210 202 199 201 204 217 227 224 222 220 218 219 217 209 211 217 214 217 220 217 209 206 224 226 223 232 233 231 236 237 238 240 242 241 239 241 243 243 244 244 245 243 242 244 240 245 249 216
337 340 343 342 339 336 337 337 334 341 346 354 6 357 341 328 322 345 348 331 348 10 325 334 48 311 289 251 225 247 231 232 215 209 216 208 204 204 201 205 207 205 202 195 191 207 227 231 227 226 223 222 218 212 214 216 216 220 219 217 214 210 221 224 218 222 228 230 230 232 235 236 239 241 240 242 244 242 244 247 249 244 242 248 242 233 229 218
336 339 342 341 338 334 334 337 333 337 347 348 358 356 335 333 329 333 350 346 344 351 309 332 53 207 246 284 306 245 238 270 219 199 209 207 202 203 204 206 202 199 203 198 185 192 210 226 229 227 224 223 218 214 218 216 213 222 222 217 214 215 222 223 219 217 216 222 224 224 230 234 238 241 241 246 247 242 243 245 247 247 243 244 242 231 223 220
335 337 340 340 337 331 327 334 333 328 342 341 344 351 333 331 336 348 5 6 346 342 330 320 288 228 246 320 303 260 236 321 208 190 208 210 207 202 196 209 211 201 202 201 187 187 193 200 222 223 219 222 218 213 218 216 205 209 223 222 216 214 222 219 220 228 221 218 223 224 228 234 239 243 243 246 246 242 242 242 244 246 240 239 240 232 222 219
334 336 339 339 334 328 323 328 326 309 335 332 324 334 337 334 342 359 3 8 13 359 350 356 326 27 87 329 302 291 190 212 193 186 203 211 214 212 204 211 220 209 204 203 192 194 198 192 211 222 217 221 218 214 218 216 208 201 205 224 222 218 221 220 219 227 223 221 225 226 227 231 238 244 242 241 244 242 238 236 238 239 237 239 241 236 226 219
331 333 337 337 332 325 316 316 312 291 305 300 287 300 336 341 341 355 360 5 13 5 4 28 33 330 191 212 287 301 253 234 208 180 177 206 215 221 219 218 223 220 210 204 202 208 205 195 207 221 218 220 218 216 217 215 213 209 200 206 218 215 218 224 222 220 217 219 223 224 228 231 234 242 240 234 235 238 235 231 233 236 238 240 240 236 227 215
326 332 335 335 331 321 306 300 291 275 283 284 284 300 335 345 340 346 353 358 7 9 16 31 29 306 276 237 234 259 248 234 224 197 197 220 215 217 221 216 214 219 214 207 210 213 199 192 205 207 199 216 219 216 216 215 215 215 211 212 214 210 212 219 222 221 217 216 221 223 227 231 233 238 241 235 226 229 230 227 231 235 225 222 225 224 218 211
322 329 332 332 329 315 295 286 278 273 281 272 260 264 291 331 339 347 349 344 355 358 3 12 355 329 324 295 261 257 244 227 233 227 169 219 220 218 222 217 212 213 211 206 210 215 202 191 199 192 177 205 223 218 213 214 219 222 219 218 217 213 214 216 221 223 221 220 224 228 228 231 236 239 240 238 228 224 225 224 231 239 214 202 213 213 213 211
318 325 329 328 324 313 289 279 269 248 250 254 244 240 239 279 323 348 354 352 339 323 317 335 319 304 299 282 267 247 230 232 233 226 239 237 232 230 220 211 211 213 213 206 207 215 211 200 203 201 184 193 219 222 213 206 213 225 223 217 212 214 217 214 217 227 229 229 231 236 237 235 238 240 232 227 227 224 224 226 232 237 230 225 221 211 213 216
312 319 325 322 320 315 284 278 285 250 235 236 240 240 234 227 240 329 354 360 354 336 324 304 282 287 286 274 274 257 239 249 242 233 250 254 247 247 239 221 216 215 215 211 209 213 212 208 211 209 196 189 193 206 211 206 204 213 221 217 210 211 219 216 213 221 230 234 231 232 241 242 239 239 231 222 223 223 223 228 230 226 229 236 227 213 217 224
307 313 319 319 318 310 269 255 297 264 242 228 233 240 236 230 228 235 288 353 360 355 342 315 284 280 276 253 255 254 241 251 250 239 248 256 251 251 250 236 226 221 217 213 212 211 208 209 213 211 202 192 187 193 206 212 211 205 211 219 214 209 217 226 225 219 217 232 235 228 238 246 242 237 232 221 219 222 223 228 231 229 232 235 229 220 220 222
303 308 313 315 314 304 278 258 234 239 239 223 230 241 239 236 232 226 236 250 299 312 323 316 293 283 272 252 252 254 243 244 251 244 243 250 248 244 245 239 229 225 222 216 211 205 204 208 211 212 210 200 194 200 206 212 216 212 206 216 219 209 203 213 227 225 219 232 239 226 231 242 240 232 229 221 216 218 220 224 230 232 234 238 235 229 225 224
299 303 306 310 310 301 287 273 242 241 255 237 231 239 240 241 238 230 241 247 248 264 276 281 282 283 275 265 263 262 251 240 243 245 243 248 250 242 237 239 233 226 224 221 212 203 205 212 212 213 214 210 203 203 205 206 209 211 205 202 213 211 200 199 212 219 219 222 224 220 224 234 234 227 225 221 215 215 217 218 224 226 230 237 237 229 223 223
295 300 302 307 309 297 282 273 246 241 255 243 231 234 237 242 244 239 247 257 253 256 258 264 273 273 274 277 274 270 261 246 241 243 236 238 252 250 239 235 234 229 223 223 218 209 209 216 217 216 216 216 212 204 204 206 204 207 209 207 211 212 205 206 208 210 217 220 222 226 227 229 230 225 222 218 213 213 215 215 218 222 228 238 241 234 224 218
287 292 296 300 302 293 277 266 246 234 241 244 238 236 237 241 245 243 252 259 258 263 265 265 271 271 273 279 273 270 270 258 246 243 236 236 250 257 250 238 232 227 220 220 220 215 213 215 213 213 214 216 215 208 205 209 209 212 215 214 216 215 214 219 217 211 215 214 217 228 230 227 227 222 216 214 212 212 213 214 215 219 223 231 241 243 237 228
282 283 290 293 295 294 283 272 257 241 240 244 242 239 238 240 243 243 250 258 259 264 271 273 275 276 280 283 276 271 273 262 247 245 244 247 252 253 253 242 231 224 218 217 218 215 216 219 213 210 212 214 217 214 209 208 211 216 218 215 215 215 218 222 220 219 220 212 211 222 226 224 225 219 211 211 212 211 212 213 215 216 219 222 229 239 246 245
281 279 286 291 293 295 290 276 259 245 240 241 242 242 238 237 242 245 246 256 261 265 272 277 279 282 290 296 289 280 272 258 250 249 248 254 258 251 246 240 229 225 219 215 215 215 215 218 215 208 206 210 216 217 213 208 202 207 213 214 213 212 216 221 218 218 222 217 216 223 225 224 225 220 212 211 211 211 211 213 214 216 218 221 224 229 237 247
279 275 280 288 289 289 287 276 257 247 246 245 241 240 239 237 239 243 246 252 264 270 274 278 281 288 301 310 306 294 272 247 242 241 243 253 260 254 248 241 227 225 225 217 213 214 214 216 219 216 207 207 210 210 213 212 204 199 205 211 212 210 212 218 218 218 220 217 219 225 226 226 226 219 212 210 209 209 210 212 215 217 220 223 225 228 231 234
278 275 277 282 284 282 282 278 257 239 244 253 244 238 241 242 238 240 247 252 261 271 277 281 282 289 305 317 320 312 273 230 228 232 241 253 257 252 250 243 226 220 226 225 214 212 214 213 217 219 216 216 211 206 211 213 212 217 220 216 216 215 214 217 218 217 217 215 219 224 224 225 226 219 212 210 209 209 211 213 216 218 222 225 226 228 230 230